TimeMST,TemperatureF,Dew PointF,Humidity,Sea Level PressureIn,VisibilityMPH,Wind Direction,Wind SpeedMPH,Gust SpeedMPH,PrecipitationIn,Events,Conditions,WindDirDegrees,DateUTC
12:53 AM,19.0,15.1,85,29.74,10.0,ESE,5.8,-,N/A,,Overcast,120,2013-01-29 07:53:00
1:53 AM,16.0,12.9,88,29.64,10.0,SE,6.9,-,N/A,,Mostly Cloudy,130,2013-01-29 08:53:00
2:53 AM,15.1,12.0,88,29.64,10.0,SE,5.8,-,N/A,,Mostly Cloudy,130,2013-01-29 09:53:00
3:53 AM,10.9,8.1,88,29.65,10.0,NW,5.8,-,N/A,,Clear,310,2013-01-29 10:53:00
4:53 AM,10.0,7.0,87,29.78,10.0,WNW,4.6,-,N/A,,Clear,290,2013-01-29 11:53:00
5:53 AM,12.0,9.0,88,29.82,10.0,NW,10.4,-,N/A,,Clear,320,2013-01-29 12:53:00
6:53 AM,10.0,8.1,92,29.86,10.0,NW,13.8,-,N/A,,Clear,320,2013-01-29 13:53:00
7:53 AM,10.9,8.1,88,29.93,10.0,NNW,16.1,-,N/A,,Scattered Clouds,330,2013-01-29 14:53:00
8:09 AM,12.2,8.6,85,29.82,7.0,NNW,18.4,-,0.00,,Mostly Cloudy,340,2013-01-29 15:09:00
8:53 AM,12.0,8.1,84,29.99,10.0,NNW,12.7,-,0.00,,Overcast,330,2013-01-29 15:53:00
9:53 AM,12.9,9.0,84,30.06,6.0,NNW,16.1,-,N/A,,Overcast,340,2013-01-29 16:53:00
10:22 AM,14.0,8.6,79,29.94,1.8,NNW,18.4,-,0.00,Snow,Light Snow,340,2013-01-29 17:22:00
10:30 AM,14.0,8.6,79,29.95,1.0,NNW,19.6,26.5,0.00,Snow,Light Snow,340,2013-01-29 17:30:00
10:40 AM,12.2,8.6,85,29.97,1.0,NNW,23.0,28.8,0.00,Snow,Light Snow,330,2013-01-29 17:40:00
10:50 AM,12.2,6.8,79,29.98,0.8,NNW,25.3,32.2,0.01,Snow,Light Snow,340,2013-01-29 17:50:00
10:53 AM,12.0,6.1,77,30.12,1.0,NNW,25.3,-,0.01,Snow,Light Snow,330,2013-01-29 17:53:00
11:15 AM,10.4,3.2,73,30.00,0.8,NNW,25.3,33.4,0.00,Snow,Light Snow,330,2013-01-29 18:15:00
11:30 AM,8.6,1.4,73,30.02,0.2,NNW,27.6,35.7,0.00,Snow,Heavy Snow,340,2013-01-29 18:30:00
11:53 AM,7.0,1.9,80,30.18,0.2,NW,27.6,-,0.00,Snow,Heavy Snow,320,2013-01-29 18:53:00
12:42 PM,3.2,-0.4,85,30.07,0.5,NNW,31.1,36.8,0.01,Snow,Snow,330,2013-01-29 19:42:00
12:53 PM,3.9,-0.9,80,30.22,0.2,NNW,21.9,-,0.02,Snow,Heavy Snow,330,2013-01-29 19:53:00
1:00 PM,3.2,-0.4,85,30.08,0.5,NNW,29.9,36.8,0.00,Snow,Snow,330,2013-01-29 20:00:00
1:07 PM,3.2,-2.2,78,30.09,0.2,NNW,21.9,36.8,0.00,Snow,Heavy Snow,340,2013-01-29 20:07:00
1:14 PM,3.2,-2.2,78,30.09,0.5,NW,26.5,29.9,0.00,Snow,Snow,320,2013-01-29 20:14:00
1:32 PM,3.2,-2.2,78,30.11,0.5,NNW,26.5,36.8,0.00,Snow,Snow,330,2013-01-29 20:32:00
1:53 PM,1.9,-4.0,76,30.28,0.8,NW,21.9,34.5,0.00,Snow,Light Snow,320,2013-01-29 20:53:00
2:29 PM,-0.4,-5.8,78,30.14,0.2,NW,26.5,35.7,0.00,Snow,Heavy Snow,310,2013-01-29 21:29:00
2:36 PM,-2.2,-5.8,85,30.14,0.2,NW,25.3,34.5,0.00,Fog-Snow,Light Snow,310,2013-01-29 21:36:00
2:53 PM,-2.0,-7.1,79,30.31,0.2,NW,25.3,34.5,0.00,Snow,Heavy Snow,310,2013-01-29 21:53:00
3:01 PM,-2.2,-7.6,78,30.16,0.5,NW,26.5,34.5,0.01,Snow,Snow,310,2013-01-29 22:01:00
3:44 PM,-2.2,-9.4,71,30.19,1.0,NW,25.3,32.2,0.01,Snow,Light Snow,310,2013-01-29 22:44:00
3:53 PM,-4.0,-9.9,76,30.36,0.8,NW,27.6,34.5,0.01,Snow,Light Snow,310,2013-01-29 22:53:00
4:23 PM,-5.8,-11.2,77,30.19,1.2,NW,25.3,33.4,0.00,Snow,Light Snow,310,2013-01-29 23:23:00
4:28 PM,-5.8,-11.2,77,30.19,2.0,NW,23.0,33.4,0.00,Snow,Light Snow,310,2013-01-29 23:28:00
4:37 PM,-5.8,-11.2,77,30.20,4.0,NW,25.3,29.9,0.00,Snow,Light Snow,310,2013-01-29 23:37:00
4:53 PM,-5.1,-11.0,76,30.37,3.0,NW,26.5,34.5,0.00,,Overcast,310,2013-01-29 23:53:00
5:02 PM,-4.0,-11.2,71,30.20,2.5,NW,28.8,34.5,0.00,,Haze,310,2013-01-30 00:02:00
5:17 PM,-4.0,-11.2,71,30.21,4.0,NW,26.5,31.1,0.00,,Haze,320,2013-01-30 00:17:00
5:28 PM,-5.8,-11.2,77,30.22,2.5,NW,23.0,28.8,0.00,Snow,Light Snow,320,2013-01-30 00:28:00
5:35 PM,-5.8,-11.2,77,30.21,3.0,NW,25.3,31.1,0.00,,Haze,320,2013-01-30 00:35:00
5:53 PM,-5.1,-11.9,72,30.39,10.0,NW,24.2,-,0.00,,Overcast,320,2013-01-30 00:53:00
6:53 PM,-4.0,-11.9,69,30.40,10.0,NW,12.7,-,N/A,,Overcast,320,2013-01-30 01:53:00
7:53 PM,-6.0,-14.1,68,30.39,10.0,NW,8.1,-,N/A,,Scattered Clouds,310,2013-01-30 02:53:00
8:53 PM,-9.0,-17.0,68,30.39,10.0,NW,8.1,-,N/A,,Clear,320,2013-01-30 03:53:00
9:53 PM,-8.0,-15.0,71,30.35,10.0,West,4.6,-,N/A,,Mostly Cloudy,270,2013-01-30 04:53:00
10:53 PM,-9.0,-15.0,75,30.33,10.0,West,3.5,-,N/A,,Mostly Cloudy,270,2013-01-30 05:53:00
11:53 PM,-8.0,-15.0,71,30.29,10.0,Calm,Calm,-,N/A,,Overcast,0,2013-01-30 06:53:00